Theta_e
309 310 310 310 310 310 310 310 310 310 310 310 310 310 310 310 310 310 310 310 310 310 310 310 311 311 311 311 311 312 311 311 312 311 312 313 314 315 315 315 315 315 315 317 318 318 317 317 317 316 316 316 316 317 316 318 320 321 323 322 321 326 326 326 329 321 318 323 319 316 316 317 319 318 317 317 317 316 316 316 317 317 317 318 317 317 317 317
309 310 310 310 310 310 310 310 310 310 310 310 310 310 310 311 311 311 311 311 311 312 312 312 313 313 313 313 313 314 313 313 313 312 314 315 315 314 315 315 315 315 315 316 317 317 318 318 317 317 316 316 317 318 318 318 319 322 325 321 323 329 322 319 322 317 316 319 317 316 316 315 317 317 316 317 317 316 316 317 316 317 317 317 318 317 317 317
310 310 310 310 310 310 310 310 310 310 311 311 311 311 311 311 311 312 312 313 313 313 313 314 314 314 314 315 315 315 314 314 313 314 316 316 315 313 314 315 316 316 315 316 316 316 317 317 317 317 316 316 317 318 319 320 320 321 321 323 330 325 316 315 316 316 317 318 315 315 314 314 316 316 315 316 316 316 316 316 315 316 317 317 318 317 317 317
310 310 310 310 310 310 310 310 310 310 311 311 311 312 312 312 312 312 312 313 313 314 314 314 314 315 314 315 315 315 315 314 315 317 317 315 316 315 314 315 316 316 315 315 315 316 317 317 317 316 316 316 316 318 319 320 321 320 319 326 327 317 316 319 316 317 317 316 315 314 314 313 315 316 315 314 316 317 315 315 316 316 317 317 317 317 317 317
310 310 310 310 310 310 311 310 311 311 311 311 311 312 312 312 312 312 313 312 313 313 313 314 314 314 314 315 315 314 314 316 318 317 315 316 317 316 314 314 315 317 316 315 315 315 316 316 316 316 316 316 315 317 319 319 319 319 320 322 319 314 317 319 317 318 317 316 315 313 314 315 315 315 315 314 315 317 315 316 317 316 317 317 317 316 316 316
310 310 310 310 310 310 311 310 311 311 311 311 311 312 312 312 313 313 313 313 313 313 313 313 314 314 314 314 314 314 314 316 317 315 315 318 318 315 315 314 314 316 316 316 315 314 315 316 316 316 315 315 316 317 318 318 318 320 320 317 318 317 317 318 318 318 317 316 315 314 316 315 314 315 315 314 315 317 316 317 317 316 316 316 316 316 316 316
311 311 311 311 311 311 311 311 311 311 311 311 311 311 311 312 312 312 313 313 313 313 314 313 313 314 314 314 314 314 313 315 315 314 316 318 317 315 315 315 314 314 315 316 316 315 314 315 315 315 315 315 315 316 316 317 317 320 321 317 317 318 316 318 318 318 318 317 316 316 315 313 314 315 314 314 315 317 316 316 316 316 316 315 316 316 316 316
312 312 313 313 312 312 312 312 312 312 312 312 312 312 312 312 312 312 312 312 313 313 313 313 313 313 313 313 313 313 313 314 314 315 316 316 316 315 315 315 315 315 314 315 316 316 314 314 315 315 315 315 315 315 315 315 316 319 321 317 316 317 317 318 318 317 318 317 316 315 312 313 314 314 312 313 316 317 316 316 316 316 315 315 315 315 316 316
312 312 312 312 312 313 313 313 313 313 313 313 313 313 313 313 313 313 313 313 313 313 313 313 313 313 313 313 312 313 314 314 315 315 315 315 315 315 315 315 315 315 314 314 316 315 313 313 315 315 315 315 315 315 314 315 317 317 318 316 315 316 316 316 316 315 315 315 315 313 313 314 314 314 313 315 317 317 316 316 316 316 315 315 315 315 315 315
312 312 312 312 312 312 312 313 313 313 313 313 313 313 313 314 314 314 314 314 314 314 314 314 314 314 313 313 313 313 315 315 315 315 315 315 315 315 315 315 315 315 314 314 315 314 314 313 313 314 315 315 314 314 314 316 317 315 314 314 314 314 314 314 314 313 313 314 314 314 315 315 313 313 314 316 316 316 316 315 315 315 315 315 315 315 315 315
315 315 315 315 316 316 316 316 316 316 315 315 314 314 313 313 313 313 314 314 314 314 314 314 314 314 314 314 312 312 315 315 315 315 315 315 315 315 315 315 315 315 315 314 313 314 313 312 312 314 315 315 314 314 314 315 315 314 313 313 313 312 313 313 313 312 312 314 314 313 314 314 312 312 314 316 316 316 315 315 314 314 315 315 315 315 315 315
318 318 318 318 318 319 319 320 320 320 320 319 319 318 317 316 315 314 313 313 313 312 312 313 312 312 313 313 313 314 315 315 315 315 315 315 315 315 315 315 315 314 315 314 313 313 312 311 312 313 314 314 314 314 314 314 314 313 313 315 315 313 314 314 313 312 312 314 314 312 314 315 314 314 315 315 316 315 314 315 316 315 315 315 315 315 315 315
318 318 318 318 318 318 319 319 320 320 321 322 322 321 321 320 319 318 316 315 314 312 312 311 311 311 311 312 314 315 315 315 315 315 316 316 315 315 315 315 315 315 314 314 314 313 312 311 311 313 313 314 315 314 314 312 312 314 313 314 315 315 316 314 313 313 312 313 313 313 314 317 317 314 314 315 315 314 313 315 316 317 316 316 315 315 316 316
315 315 315 315 315 315 314 315 315 316 317 317 317 318 319 319 320 320 320 319 318 316 315 314 312 310 310 312 313 314 314 314 315 315 315 315 315 315 315 315 315 314 314 314 314 313 313 313 312 313 313 314 315 313 314 315 316 316 312 313 316 316 317 314 311 311 312 313 312 313 314 314 315 313 314 315 314 314 313 315 316 317 317 317 317 316 317 318
313 313 313 313 313 312 312 313 313 313 313 313 313 314 314 315 315 316 317 318 318 318 318 317 314 311 310 312 312 313 313 313 314 315 315 315 316 315 315 315 315 314 314 314 314 314 313 313 314 314 314 314 313 314 319 321 323 321 314 316 319 316 316 315 311 310 313 313 310 313 316 314 314 314 315 315 314 314 313 314 316 317 318 318 318 317 317 318
312 312 312 312 312 312 312 312 311 312 312 312 312 312 312 313 313 313 314 314 314 315 317 316 314 311 311 312 312 313 314 314 315 315 315 315 315 316 315 315 315 315 314 314 314 313 313 313 314 314 314 313 315 320 322 320 324 323 315 316 319 316 315 315 314 310 310 312 310 312 316 315 315 314 315 315 314 313 312 313 315 316 317 317 317 318 318 317
312 312 312 312 312 312 311 311 311 311 311 311 311 311 311 312 312 312 313 313 312 313 314 313 312 312 312 313 313 313 314 314 314 314 315 315 315 316 316 315 315 314 314 313 313 312 312 312 313 314 314 313 316 320 320 317 319 319 315 316 317 316 314 314 317 311 308 311 313 313 313 313 314 313 313 314 314 312 311 312 314 316 316 316 317 317 318 317
315 315 314 314 313 313 313 313 313 313 314 313 313 313 313 313 313 312 313 313 313 312 312 312 313 313 314 314 313 314 314 314 314 315 315 315 315 315 316 315 315 314 312 312 312 311 312 311 312 316 315 314 315 316 317 317 316 316 316 317 317 316 314 314 316 313 311 313 313 313 312 312 312 311 311 312 313 312 310 311 312 314 314 315 316 316 316 317
317 317 317 316 315 315 315 316 316 316 317 317 316 316 315 314 313 313 314 314 313 314 314 314 314 314 315 314 313 313 314 314 315 316 316 316 316 315 315 315 314 313 311 312 313 311 312 312 313 316 316 314 314 313 314 315 314 315 315 315 315 314 313 313 313 312 312 312 312 312 312 311 311 311 311 311 312 311 311 311 311 311 312 313 313 314 315 316
320 320 320 319 318 317 317 318 319 319 319 319 319 318 315 313 313 314 314 313 314 314 315 315 315 315 315 313 313 313 313 314 314 314 315 315 315 315 315 313 313 312 312 315 317 311 311 315 316 316 315 314 314 313 313 313 313 313 313 314 314 313 312 312 312 311 310 310 312 313 312 311 311 312 311 311 311 311 310 311 311 311 311 312 313 313 314 315
323 323 322 322 321 320 320 320 321 321 319 320 320 318 313 311 312 313 312 313 314 314 314 313 314 314 314 314 314 314 314 314 314 315 315 315 315 315 314 313 313 314 312 313 314 311 311 315 316 316 315 314 314 313 312 313 313 312 314 314 313 313 312 311 312 311 310 310 312 313 313 311 311 312 311 311 311 311 311 311 311 312 312 312 313 313 314 315
324 324 324 324 324 323 322 322 322 321 320 321 320 317 313 311 311 311 310 312 313 314 313 313 313 312 313 314 314 313 313 314 314 315 315 315 315 315 314 314 315 315 313 311 313 313 313 313 314 313 313 313 313 312 312 312 313 313 314 313 313 313 312 312 312 312 311 311 315 315 313 311 311 312 311 311 311 312 312 312 312 312 312 312 313 313 314 314
324 324 324 324 324 324 324 324 323 321 321 322 320 317 315 312 311 309 309 310 313 314 315 315 314 312 313 314 314 313 312 313 313 314 315 314 314 314 313 314 315 316 315 314 315 315 315 315 312 310 311 312 313 312 313 312 312 314 313 313 313 312 312 313 314 314 312 312 316 316 312 311 311 311 311 311 310 311 312 312 313 313 313 312 313 314 314 314
323 323 324 323 324 324 324 324 324 322 323 322 319 318 316 313 310 309 310 310 312 314 316 317 314 312 315 315 314 313 312 312 313 313 314 314 314 314 312 313 314 315 314 313 314 315 316 315 312 310 311 313 314 313 313 313 312 313 313 312 313 312 312 312 313 315 314 314 316 314 312 313 314 313 312 311 310 310 311 311 311 312 313 313 313 313 313 313
323 322 323 322 323 323 323 324 324 323 324 323 320 320 318 313 310 310 310 312 315 314 314 315 313 313 315 314 313 313 311 312 312 313 313 314 314 313 312 312 313 315 314 313 313 313 313 312 311 313 314 313 314 313 314 315 313 312 314 313 312 313 313 312 313 313 314 318 318 314 314 317 318 317 314 313 312 311 310 310 310 311 313 313 312 313 314 314
323 323 323 323 323 323 323 324 324 324 324 323 321 320 319 314 311 312 311 314 319 318 314 313 313 314 313 312 312 311 313 314 312 312 312 313 314 313 312 312 312 313 313 312 312 313 313 311 311 316 317 315 314 313 314 314 312 313 318 318 313 312 314 314 314 313 318 321 316 314 317 317 317 317 317 316 315 314 313 312 311 310 311 312 312 313 315 316
324 324 324 324 324 323 324 324 323 323 324 323 322 321 319 314 311 311 312 318 322 319 315 313 313 313 312 311 312 312 317 317 312 312 312 313 314 313 313 313 311 311 311 311 312 314 314 312 313 315 315 316 315 314 314 313 313 315 320 322 317 315 316 315 314 314 318 319 314 315 318 317 316 316 317 317 315 316 315 315 313 311 311 312 312 314 316 317
325 325 325 325 325 324 324 324 324 324 324 323 322 322 320 315 312 311 314 324 325 317 315 314 311 313 312 311 312 311 313 313 312 313 312 312 313 312 313 312 312 313 310 311 314 313 314 315 316 315 313 315 314 313 315 313 313 317 316 317 318 317 316 315 316 316 315 316 316 315 315 318 318 315 316 314 314 317 316 315 315 312 312 313 313 315 317 317
326 325 325 325 324 324 324 324 324 323 324 323 322 322 319 315 313 310 316 324 323 314 315 314 312 313 312 311 311 310 310 310 310 312 311 312 313 311 312 311 310 312 310 310 314 312 313 315 313 314 316 314 313 315 318 317 315 315 314 316 317 318 318 318 319 317 317 318 317 316 316 317 318 317 318 315 314 318 317 315 314 312 312 314 314 316 317 316
325 324 324 324 324 324 324 324 324 323 323 323 323 322 318 315 312 314 322 323 319 316 314 312 313 312 311 313 313 310 310 310 310 311 311 311 312 310 311 310 309 314 314 311 314 312 310 309 308 312 313 312 315 314 311 314 313 311 316 321 321 321 320 321 321 318 317 319 318 319 318 316 318 318 318 318 318 318 316 315 316 314 311 313 316 316 316 316
323 324 324 324 324 324 323 324 323 323 323 322 323 321 317 316 314 319 326 321 317 319 314 312 314 314 314 314 315 314 312 310 309 311 313 312 312 311 310 311 311 316 319 314 314 313 310 309 311 312 309 309 315 313 307 308 310 312 320 323 321 322 321 321 322 319 318 320 319 319 317 315 317 316 316 319 318 317 317 317 323 323 314 313 316 316 316 317
319 319 320 321 322 322 323 323 323 323 322 321 322 319 317 319 318 320 324 320 321 322 314 314 315 316 317 313 316 318 313 312 309 311 316 315 314 314 313 315 316 317 321 318 317 317 314 313 313 312 309 310 315 317 313 311 311 314 320 319 317 320 319 318 321 319 319 319 316 315 315 314 316 316 316 317 316 318 317 313 317 320 314 313 316 317 315 316
314 314 315 318 320 321 322 322 323 322 322 321 319 316 318 323 323 322 321 321 324 320 313 316 314 314 316 314 321 320 312 315 313 310 314 312 312 316 315 316 317 315 316 317 318 319 318 315 311 311 311 312 314 316 315 316 315 314 316 317 318 319 318 320 322 319 318 318 314 313 315 315 317 319 319 317 314 316 314 309 310 312 311 313 315 315 315 316
314 313 314 316 318 319 320 321 322 322 322 320 318 317 320 322 322 322 322 323 325 319 315 317 315 315 314 315 323 321 313 318 317 310 312 312 311 316 317 314 312 313 314 314 315 317 317 316 314 314 315 314 313 314 315 318 316 312 315 318 318 319 322 323 324 321 319 319 314 311 316 319 319 319 321 317 312 311 310 310 311 311 311 312 312 313 313 314
313 314 314 315 315 316 318 319 321 321 321 318 316 318 322 322 321 322 323 324 324 320 316 315 315 318 318 318 323 320 313 318 317 312 313 314 314 317 319 316 311 312 314 313 316 317 315 317 318 313 312 312 312 313 316 320 318 313 316 319 315 318 321 320 321 321 319 319 315 313 318 321 317 316 318 318 315 312 310 309 309 309 310 310 311 312 313 313
312 313 313 313 314 314 315 317 320 320 319 317 316 319 321 321 322 323 322 319 317 317 318 318 317 320 321 322 323 319 313 313 315 313 313 314 315 316 318 318 313 311 312 313 317 318 315 318 318 310 309 311 310 310 312 315 316 314 314 317 315 315 317 315 319 320 316 316 317 317 319 318 317 317 315 315 316 314 313 312 309 308 309 310 311 312 313 313
310 311 311 311 311 312 314 316 319 320 318 316 318 320 320 318 320 322 319 314 313 315 317 318 319 320 321 323 324 321 316 315 314 313 315 316 315 315 317 317 312 309 311 312 315 318 315 315 316 312 312 311 305 306 310 308 311 317 317 315 314 314 316 316 318 319 317 316 317 317 318 316 317 318 315 316 320 318 317 317 312 308 308 309 311 312 313 314
307 308 309 309 309 310 313 315 318 318 316 316 318 320 319 318 316 316 316 313 314 316 316 318 320 321 322 322 322 322 319 318 317 315 318 319 316 316 318 317 312 309 310 310 312 317 315 314 316 316 314 312 307 309 314 308 307 314 316 313 314 317 318 317 318 318 317 317 317 317 318 316 316 318 316 318 322 320 318 316 315 314 310 308 311 312 313 314
305 306 307 309 309 309 310 313 316 316 315 316 318 318 318 318 315 314 316 315 315 316 318 319 320 321 322 320 320 322 321 320 320 319 320 321 319 316 315 315 313 310 308 309 311 316 315 313 316 315 312 313 311 313 319 316 309 309 310 311 313 315 316 317 318 318 317 317 318 318 318 317 319 323 322 318 319 320 317 317 320 318 310 308 311 312 313 314
304 305 307 309 310 310 311 313 315 315 315 316 317 317 317 317 315 314 315 315 315 316 318 319 320 320 320 319 319 321 321 320 321 320 320 322 322 319 316 315 314 313 310 310 311 315 316 314 315 316 314 313 313 315 319 320 315 312 312 312 312 312 315 316 314 316 316 316 317 318 319 318 319 323 322 318 319 319 318 320 323 316 309 310 312 312 313 314
304 306 308 309 310 312 312 313 314 314 315 317 316 316 316 315 314 314 314 314 314 315 315 316 319 318 317 318 318 319 320 320 320 320 319 320 320 319 318 315 314 316 315 314 315 316 317 317 316 317 317 315 316 316 317 318 317 314 313 314 313 313 315 315 315 316 316 315 316 318 318 318 318 318 317 316 317 316 315 318 318 312 309 311 313 313 313 314
305 306 308 309 311 314 314 314 314 314 314 316 316 315 315 315 315 314 313 313 313 314 313 314 317 317 315 316 317 317 318 319 319 318 318 318 318 318 317 313 312 315 317 318 319 317 316 317 316 315 317 317 317 316 316 315 314 313 312 313 314 313 313 315 316 317 317 315 316 317 317 319 319 317 316 315 316 313 311 313 313 310 310 312 312 312 313 313
305 306 308 310 311 314 315 314 315 314 314 315 314 314 315 314 315 314 313 313 313 313 314 314 315 315 315 315 315 316 316 317 317 317 316 316 316 315 315 313 312 313 315 319 319 316 314 315 316 315 317 318 317 316 315 312 311 312 312 312 313 313 312 314 315 315 316 316 316 317 317 320 322 320 316 315 315 312 310 310 310 309 310 311 311 312 313 313
304 304 305 307 310 313 314 315 315 315 314 313 313 314 314 314 314 314 313 313 313 314 314 314 314 314 314 315 315 315 316 316 316 316 316 316 315 314 313 313 313 314 315 318 318 316 315 316 317 317 318 319 318 317 316 313 312 312 313 313 312 312 312 313 314 314 314 314 316 317 316 318 322 322 317 315 315 313 312 311 309 309 310 311 312 312 313 313
302 303 303 303 306 309 312 313 314 314 314 313 313 313 314 314 313 314 314 312 312 313 313 314 313 312 312 313 313 314 314 315 315 315 316 317 316 313 309 309 311 311 313 313 313 313 315 317 318 317 318 319 318 317 318 317 315 313 313 314 313 313 313 313 314 314 314 315 315 316 316 316 317 318 316 315 314 313 313 312 311 310 310 311 312 312 312 312
300 302 302 302 303 305 308 310 311 312 312 312 313 313 313 314 313 313 313 313 312 312 312 312 311 310 311 312 312 312 313 313 313 313 314 316 316 310 304 306 308 308 310 311 309 309 311 314 315 315 316 317 316 315 316 317 316 315 315 315 314 314 313 313 314 314 314 315 315 315 315 315 315 315 315 314 313 313 312 312 312 311 311 312 311 311 310 309
298 300 301 303 304 305 306 308 309 310 310 310 312 312 312 313 312 312 312 312 312 311 311 311 311 311 312 312 312 312 312 312 312 311 310 310 308 304 302 304 306 305 306 307 306 307 310 311 313 313 313 314 314 314 314 315 314 314 315 314 314 314 313 313 313 313 314 315 314 314 315 315 314 314 313 313 312 312 312 312 312 312 312 312 310 307 306 304
298 298 300 302 303 304 305 305 304 305 306 307 307 309 309 310 310 310 310 310 310 310 311 311 309 307 307 307 309 309 309 310 310 308 307 303 301 301 303 304 304 303 303 302 303 306 308 309 311 312 312 312 313 313 313 313 313 314 314 314 314 314 313 313 312 312 312 313 313 313 314 314 314 313 313 313 312 312 312 311 311 311 310 306 303 301 299 298
296 297 298 299 299 300 302 301 300 301 302 303 305 306 308 308 308 309 309 310 310 309 311 310 305 302 301 303 305 305 305 307 307 304 303 300 299 301 302 303 304 302 300 300 302 304 307 308 309 310 310 311 311 311 312 312 312 312 312 313 313 313 313 313 312 312 312 312 312 312 312 313 312 311 310 309 307 307 308 306 304 303 300 298 297 296 295 295
295 296 297 297 297 297 298 298 298 299 300 301 303 305 306 307 308 308 307 307 308 309 309 306 302 299 300 301 301 302 302 304 304 303 301 299 299 300 301 301 302 300 299 300 302 304 306 308 308 308 308 309 310 311 311 311 311 311 311 311 311 311 312 312 312 312 312 312 312 311 313 313 308 302 300 299 298 298 299 299 297 295 294 294 295 294 294 294
294 295 295 295 296 296 297 297 297 298 299 301 302 304 305 305 304 304 303 303 304 306 305 302 299 298 299 299 299 301 301 301 301 300 299 298 298 299 299 299 299 298 298 300 302 303 304 305 305 306 307 307 308 310 310 311 310 310 310 311 310 310 311 311 311 312 312 312 313 313 312 307 299 295 295 295 294 294 295 296 294 293 293 293 293 293 294 294
293 294 294 295 295 296 296 295 296 298 298 299 300 301 301 301 298 299 302 302 302 301 299 297 297 298 297 298 299 300 299 298 297 297 297 297 297 297 297 297 297 298 298 299 300 301 302 303 304 305 305 305 306 307 308 309 309 309 310 311 311 311 311 311 312 311 310 309 309 307 302 297 294 293 294 294 293 293 293 295 294 293 293 293 293 293 293 293
Wind_Speed
6 6 6 6 5 5 5 5 5 5 5 5 5 5 5 5 5 5 5 6 6 7 8 8 9 10 10 11 11 12 13 14 14 15 16 11 8 9 10 11 10 8 7 6 5 3 4 5 5 5 5 4 3 3 3 5 5 3 2 2 3 3 4 5 7 6 3 3 5 7 6 5 6 8 10 10 11 16 16 17 18 19 22 24 25 22 20 17
6 6 6 6 6 6 5 5 5 5 5 5 5 5 5 5 5 6 5 6 6 6 7 8 9 10 11 12 12 14 15 15 16 16 11 4 7 9 7 11 12 10 7 6 6 5 4 5 5 6 6 5 3 3 3 5 7 5 3 2 5 5 6 6 7 6 4 5 8 12 10 6 9 10 7 7 10 13 12 15 17 20 24 25 28 27 25 23
7 7 7 7 7 7 6 6 6 6 6 6 6 6 6 6 6 6 6 6 7 7 8 9 10 10 12 12 14 15 15 18 17 10 2 4 11 13 7 7 11 12 10 8 7 6 6 6 5 5 7 6 5 5 4 5 7 6 4 2 7 7 6 10 12 12 12 12 10 12 10 6 12 13 7 7 11 11 10 13 14 19 26 26 28 28 27 26
8 8 8 8 8 8 8 8 7 7 7 7 8 7 8 8 8 8 8 8 8 8 9 10 11 12 13 13 15 15 16 17 8 3 6 11 14 12 7 5 8 12 13 10 9 9 7 7 6 6 7 6 5 6 5 8 7 5 6 5 6 5 4 13 17 16 16 13 11 10 6 7 15 14 12 9 8 8 13 20 20 21 26 25 26 28 28 28
9 9 9 9 9 9 9 9 9 9 9 9 10 10 10 10 10 10 10 10 10 10 11 11 12 13 14 15 15 15 15 10 0 3 14 13 10 9 7 5 6 9 13 12 11 10 9 9 8 7 6 5 4 4 5 12 11 4 8 13 11 6 4 15 18 14 14 12 11 10 6 11 15 13 18 13 9 14 18 22 23 24 25 24 25 26 27 29
10 10 10 10 10 11 11 11 11 11 11 11 11 12 12 13 13 13 13 13 13 12 13 13 13 14 15 16 16 16 10 3 6 12 15 10 8 8 7 7 6 7 11 13 12 11 10 11 9 7 6 3 5 6 6 12 13 5 7 12 17 14 11 18 20 16 16 14 12 12 11 15 14 16 19 16 21 31 30 27 28 29 27 25 25 26 27 29
11 12 12 12 12 12 13 13 13 13 13 13 13 14 14 15 15 15 15 15 15 15 15 15 15 15 16 17 17 16 9 10 16 16 12 8 8 9 10 11 8 7 9 12 14 13 12 12 12 9 4 2 5 8 8 9 12 8 6 7 16 18 18 24 25 23 22 19 20 19 16 16 15 15 12 18 34 41 37 35 35 35 32 27 27 28 30 30
13 13 13 13 14 15 15 15 15 15 15 15 15 16 16 17 17 17 17 17 17 16 16 17 16 17 17 17 18 15 13 17 17 12 10 9 10 13 15 14 11 9 9 10 13 14 14 13 15 11 4 4 6 6 6 6 7 8 8 8 10 14 19 25 25 24 24 23 24 19 16 21 24 19 13 27 46 44 38 38 36 33 32 31 30 31 32 32
14 14 14 14 15 16 16 17 17 17 18 17 18 18 18 19 19 19 19 19 18 18 18 18 17 19 18 19 18 14 16 18 13 11 12 13 16 18 18 16 13 12 10 11 12 14 15 15 17 14 8 8 6 6 5 4 4 8 12 11 9 12 18 22 21 21 18 20 19 11 15 27 27 17 17 35 43 37 33 29 25 23 26 28 30 32 33 34
13 14 13 14 14 15 16 17 18 18 19 19 19 19 20 20 21 21 21 21 20 20 20 19 19 19 18 21 16 10 17 18 13 15 17 18 20 20 20 17 14 13 12 13 13 15 17 15 14 12 12 9 6 6 5 5 5 6 9 11 13 15 20 21 20 19 14 16 18 11 13 27 22 6 13 35 35 28 27 22 17 17 22 25 26 29 31 33
13 13 13 14 14 15 16 17 18 18 19 19 19 20 20 21 21 22 22 22 21 21 20 19 20 19 20 22 17 15 21 22 20 22 21 21 22 22 21 18 16 15 14 14 14 15 16 16 12 8 7 6 5 5 6 8 8 8 8 10 14 13 19 22 19 18 12 12 19 15 12 22 15 3 18 40 39 30 30 28 25 23 26 27 25 27 29 32
14 14 14 15 15 16 17 18 19 19 19 20 20 20 20 21 21 22 22 22 22 21 20 19 18 19 19 22 27 26 27 26 23 24 22 23 24 24 23 20 19 16 15 15 14 14 15 16 14 11 8 5 3 2 4 6 5 9 6 6 13 8 14 22 16 15 10 7 12 9 5 13 8 11 29 43 40 32 29 33 35 32 32 31 29 29 30 33
14 15 15 15 16 17 17 18 19 20 20 20 20 20 21 22 22 22 22 21 21 21 20 18 17 18 16 22 31 29 26 26 25 25 24 25 26 26 25 23 20 16 16 15 14 15 15 15 14 15 14 8 4 4 5 5 6 10 4 1 8 7 9 12 4 4 7 5 6 8 2 9 9 21 35 38 35 29 24 31 36 35 35 34 32 32 31 32
13 14 14 15 15 16 16 17 18 19 20 20 20 20 21 21 22 23 22 21 21 20 20 18 17 17 16 23 32 29 27 28 28 28 27 26 26 26 26 23 20 17 16 15 15 15 14 13 12 13 14 12 10 9 7 6 4 5 3 1 3 3 7 7 4 0 4 5 10 10 4 9 10 24 37 35 30 24 22 29 34 35 35 35 34 33 32 30
12 12 12 12 13 14 14 15 17 18 19 19 20 20 20 20 21 22 22 21 21 20 20 18 17 15 13 22 29 26 26 28 28 27 25 24 24 25 24 21 19 17 15 15 15 15 14 10 9 8 9 12 12 7 4 4 3 2 2 4 2 2 7 11 9 6 9 7 10 11 5 8 10 23 36 31 23 20 21 28 32 33 35 36 36 35 34 31
10 10 10 11 11 12 13 14 15 17 18 18 19 20 21 21 20 21 21 21 20 20 19 16 17 14 9 15 23 22 24 27 26 24 22 22 23 23 22 17 15 16 15 15 14 13 11 8 8 7 6 8 6 2 3 4 5 3 2 5 4 5 4 8 12 10 12 6 6 9 7 6 7 19 31 27 20 19 20 26 31 34 37 37 38 37 35 35
8 8 8 9 10 11 11 12 14 15 16 17 19 19 20 20 20 20 20 19 18 18 16 13 13 12 10 14 21 26 28 26 24 22 22 22 22 21 20 17 15 14 13 13 12 10 9 9 7 4 5 4 2 5 3 3 6 4 2 4 5 7 5 4 9 9 6 6 6 8 9 11 11 15 27 29 25 20 18 25 31 34 37 37 37 36 37 39
7 7 7 8 9 10 11 12 14 15 16 17 18 19 20 19 18 17 17 17 14 11 10 10 8 4 11 17 19 23 23 19 17 17 17 18 19 19 18 16 14 12 10 8 8 9 10 8 5 1 2 3 2 5 3 7 9 7 6 5 4 5 7 7 8 7 3 5 7 5 9 15 14 14 24 34 32 25 25 29 32 35 37 38 39 40 43 45
7 7 7 8 9 10 11 13 14 16 17 17 17 19 18 16 14 12 11 10 9 6 4 10 14 5 7 11 13 15 16 15 14 14 16 17 17 17 16 14 12 12 10 5 6 11 11 4 3 3 3 8 8 8 11 15 14 11 7 6 6 6 7 8 11 10 6 8 7 7 14 16 14 14 19 32 33 26 32 34 31 34 36 39 41 44 47 49
8 8 9 9 10 11 12 14 15 16 18 17 18 17 13 11 9 6 7 10 13 13 13 14 19 18 16 15 16 17 19 19 19 19 20 19 15 14 15 13 11 11 8 6 6 9 11 6 3 7 11 15 12 13 18 18 11 6 3 6 8 8 10 10 13 12 3 4 8 9 17 17 15 14 14 29 31 21 26 30 31 32 34 37 41 44 46 48
9 10 10 10 10 11 11 12 14 15 16 18 20 16 10 9 6 6 11 16 20 22 24 24 23 26 27 25 24 23 20 19 21 22 19 18 15 12 14 13 9 6 6 6 5 3 7 7 8 14 19 16 11 13 15 11 7 5 5 8 8 7 12 12 13 14 2 2 7 8 16 19 15 14 14 22 23 18 22 25 30 33 33 36 39 43 48 49
10 10 10 11 10 11 11 12 13 13 14 16 18 15 11 12 10 10 12 13 21 25 26 28 29 33 35 33 32 30 22 16 19 22 18 17 17 13 12 12 7 4 4 5 4 1 4 6 13 21 17 7 4 6 7 7 8 7 6 6 7 7 11 10 10 13 2 2 7 7 15 18 13 13 14 16 18 24 31 29 33 37 33 34 38 43 47 49
11 11 12 12 11 12 12 13 13 12 14 16 16 15 15 16 14 13 10 8 17 23 24 28 31 34 36 35 35 34 27 20 19 21 21 19 19 16 13 11 5 3 5 7 8 6 6 7 16 21 10 3 7 4 6 5 5 6 7 6 8 7 8 8 6 7 3 3 7 9 14 14 11 12 13 19 26 29 35 35 36 41 40 39 45 47 46 48
13 12 13 13 13 13 13 14 13 12 15 16 14 15 17 17 13 13 11 7 9 15 22 27 27 30 33 31 29 28 27 23 18 18 22 24 20 13 10 9 5 3 7 12 14 12 9 8 12 12 7 7 10 7 6 5 6 8 9 7 10 12 12 11 4 6 5 5 5 7 14 13 9 12 10 15 24 24 29 31 31 41 47 46 47 49 47 49
15 14 14 14 14 14 14 15 13 12 15 14 13 14 17 17 14 13 10 5 5 8 13 16 17 21 25 23 21 18 15 17 21 20 19 23 22 11 6 9 7 5 11 12 11 11 11 10 7 7 7 10 9 8 8 7 8 8 8 12 18 17 13 11 7 7 5 5 5 3 9 10 5 10 9 9 11 12 17 19 22 36 47 43 39 43 47 48
17 16 16 16 16 16 16 14 12 13 14 12 12 14 16 15 13 12 8 3 4 5 4 5 6 8 10 12 14 9 3 8 17 22 19 20 25 16 5 7 6 6 8 7 4 5 6 8 7 8 9 9 7 7 8 10 9 9 6 13 17 13 10 11 8 3 2 4 4 3 1 10 6 6 10 9 8 10 12 11 17 30 39 35 31 37 43 43
18 18 18 18 18 17 16 14 14 14 12 11 12 13 14 12 10 10 6 3 4 3 3 4 4 2 3 6 10 11 3 4 4 12 19 19 23 19 8 5 4 4 5 3 3 4 4 4 5 8 7 6 6 8 9 11 8 8 4 8 10 9 10 9 6 5 4 3 3 1 4 6 13 6 9 11 10 10 12 12 16 24 30 30 30 34 37 37
19 20 20 19 18 18 17 16 15 13 10 11 12 12 11 9 7 7 4 3 4 2 3 3 4 1 2 6 14 10 1 2 2 3 12 15 18 14 7 7 5 3 4 5 5 4 4 5 7 8 6 5 8 9 6 11 8 6 1 4 6 6 6 5 5 5 1 3 3 3 5 2 13 7 3 4 8 8 13 16 17 18 22 26 29 33 33 32
21 21 20 20 19 18 18 17 15 12 10 10 11 11 10 7 5 5 2 4 3 2 1 2 3 1 2 6 12 7 4 5 2 1 4 8 13 7 2 5 4 4 4 6 8 6 1 4 7 9 6 6 9 5 6 12 8 3 5 5 4 4 3 4 4 4 2 4 5 7 6 3 12 8 4 3 3 8 12 14 13 13 18 25 29 30 29 27
21 21 20 19 19 19 18 17 15 12 11 10 10 10 9 5 3 2 4 5 2 1 0 1 1 1 3 4 3 5 3 4 3 4 3 3 8 5 2 2 1 2 4 5 8 8 3 1 3 6 7 6 4 2 3 8 6 3 6 5 6 5 4 4 1 3 2 7 6 12 13 7 8 6 4 3 4 6 8 8 8 10 16 24 25 25 25 24
21 20 20 21 20 19 18 17 15 13 11 9 9 7 4 2 2 3 7 2 2 2 1 0 2 3 4 2 2 3 1 3 1 5 2 2 3 2 1 1 0 1 3 5 6 7 4 2 2 5 7 5 6 4 1 2 4 4 4 3 3 4 4 4 4 4 1 8 6 11 13 10 9 5 2 5 6 5 6 7 8 8 14 19 18 20 24 26
21 21 21 22 22 21 20 18 16 14 11 8 7 3 2 1 1 6 5 4 2 3 1 0 2 2 3 2 2 3 1 2 2 4 3 2 3 3 3 5 3 1 4 4 4 5 4 6 4 3 5 7 6 2 2 4 3 4 3 4 1 4 3 2 3 1 4 8 4 6 7 6 11 8 4 9 10 8 8 9 10 9 12 17 18 23 27 29
21 21 20 19 20 20 19 18 16 14 12 8 4 2 4 1 5 4 2 1 2 1 1 1 1 2 3 1 3 3 1 3 3 2 1 2 1 3 5 5 5 3 5 3 2 4 4 5 3 4 3 9 10 5 3 2 4 7 5 6 5 3 3 4 3 2 5 7 3 3 5 4 8 5 8 14 14 11 10 12 16 15 17 21 24 28 31 33
22 21 21 19 19 19 17 17 15 12 11 7 4 4 2 6 6 2 3 5 3 2 2 2 2 2 1 2 4 3 2 3 3 3 1 2 0 3 4 5 5 3 2 2 2 2 4 8 4 6 3 9 13 11 9 4 4 7 6 5 6 6 5 4 4 6 7 5 3 1 4 4 3 3 8 12 9 8 9 13 17 18 20 21 24 28 30 31
23 23 23 22 21 20 18 18 16 12 12 8 6 3 5 8 5 1 4 4 2 3 3 1 2 1 2 3 4 3 5 4 1 3 2 3 2 3 3 5 7 5 3 3 2 3 5 9 6 4 2 9 10 7 5 6 1 4 4 4 4 5 5 4 6 6 3 2 2 3 4 5 4 6 7 8 8 9 9 10 10 13 14 15 19 22 22 24
25 26 26 26 25 21 18 18 16 14 15 11 5 4 8 7 4 3 3 1 1 1 3 4 1 2 5 3 2 2 3 3 0 1 2 3 3 4 4 3 7 9 7 5 3 2 4 7 3 1 2 4 2 3 1 4 3 2 3 3 4 3 5 5 7 2 1 4 5 4 6 5 4 8 7 5 8 9 9 8 7 9 11 12 16 17 20 24
26 26 27 29 27 22 20 18 15 18 19 13 5 7 6 5 6 6 3 1 2 2 2 3 3 3 4 2 2 2 0 1 1 1 2 2 3 4 4 4 5 11 14 10 4 2 4 6 3 2 1 3 2 2 2 1 4 5 3 5 2 2 2 2 3 2 2 8 6 5 12 8 4 7 5 6 6 6 6 5 5 6 5 8 17 21 24 27
25 25 28 31 27 23 22 17 15 21 19 9 8 11 5 4 8 8 6 4 1 0 2 4 4 3 4 4 4 2 2 2 1 2 2 2 3 4 4 4 4 9 14 10 2 2 1 4 4 2 2 4 4 1 3 3 3 5 3 2 2 1 3 1 2 3 6 10 6 7 14 11 6 8 5 5 7 8 6 2 4 7 6 9 18 23 26 29
19 18 20 20 16 18 22 19 19 24 15 4 9 11 4 5 8 10 12 9 4 2 3 6 5 3 4 5 5 3 4 4 3 2 3 3 4 3 4 1 2 4 7 6 4 3 1 2 5 1 2 2 4 1 2 3 1 2 0 1 2 4 3 3 3 2 5 10 8 8 11 8 6 6 5 8 10 8 7 4 5 8 8 12 18 21 27 31
11 8 10 7 6 11 18 20 22 21 10 4 10 8 3 4 6 11 16 12 5 4 4 4 5 6 6 5 5 4 4 5 4 3 3 3 5 4 2 2 1 1 1 3 3 2 2 2 6 4 2 3 3 3 5 5 3 1 2 3 3 3 1 1 2 1 3 7 7 7 8 7 6 4 6 9 9 8 8 6 7 9 11 17 22 24 28 30
6 4 6 7 7 10 18 20 16 12 5 6 9 8 6 6 5 7 14 14 10 7 6 4 5 6 6 6 5 3 2 3 4 5 3 4 6 6 5 6 6 3 3 3 1 1 1 2 4 5 5 7 8 6 7 7 5 3 4 4 5 5 3 5 6 4 4 6 7 8 9 7 6 8 8 7 7 9 9 7 7 9 15 22 26 26 26 26
8 5 4 6 8 13 20 15 9 7 5 6 9 8 7 7 7 6 8 12 9 6 5 4 5 6 5 6 6 3 3 3 5 5 4 7 9 7 6 6 8 6 2 1 3 4 4 2 3 6 7 10 13 8 6 7 5 3 4 3 4 5 4 7 10 7 6 8 8 9 11 7 6 11 13 8 6 8 9 9 8 11 17 21 23 23 24 28
9 10 6 5 7 16 19 8 6 8 5 6 10 11 10 7 5 5 6 8 7 5 4 4 6 7 6 6 6 5 4 5 6 8 7 7 9 13 16 15 9 4 1 3 4 2 3 3 3 7 6 7 11 10 6 5 4 4 5 6 8 8 9 10 9 5 5 8 7 9 11 5 5 9 14 13 11 11 14 15 13 14 18 20 21 26 29 31
7 13 14 9 9 17 16 5 5 8 6 7 8 10 13 10 7 8 6 5 6 5 4 5 6 8 7 5 6 7 6 5 7 9 8 5 5 11 19 20 14 7 6 6 4 3 4 2 3 5 5 4 5 8 7 3 4 5 7 9 11 12 13 12 7 4 6 10 10 12 11 6 3 7 10 15 18 18 18 18 14 13 18 23 25 28 30 31
5 9 14 14 15 17 13 8 6 5 6 10 10 10 11 8 9 15 12 7 8 6 3 5 5 4 4 3 5 6 6 6 6 5 4 3 3 2 4 11 10 8 8 7 4 1 3 3 3 4 6 7 6 7 6 3 2 3 5 10 12 14 16 12 8 8 10 11 13 13 12 8 6 6 8 14 17 18 20 23 20 15 16 20 25 27 27 28
3 3 5 7 12 17 18 17 11 4 3 7 8 9 12 11 10 13 12 9 12 12 6 6 6 5 3 3 5 7 8 8 7 4 4 4 3 3 12 19 13 8 11 15 11 3 1 2 6 10 11 10 12 12 9 7 5 4 5 9 10 11 13 11 8 10 11 11 13 13 14 15 12 9 11 14 16 17 19 23 26 23 20 21 23 21 16 14
2 2 2 2 5 10 14 16 11 4 2 3 3 3 8 11 8 6 8 7 9 10 6 6 7 5 4 4 5 6 7 7 7 7 6 4 2 6 13 16 12 15 15 13 12 4 2 3 8 15 16 15 17 19 17 15 14 13 12 12 11 10 11 11 12 14 13 13 14 13 14 19 15 11 14 15 16 17 18 19 26 33 34 27 19 16 17 18
3 3 3 1 2 3 5 6 5 3 3 2 2 4 7 11 9 5 5 4 3 5 4 3 2 1 2 0 2 2 3 3 4 2 2 3 4 6 10 8 6 14 16 11 13 6 2 5 7 13 16 15 16 18 18 18 17 16 16 16 17 17 17 17 18 18 15 15 16 15 17 21 17 13 15 15 15 17 20 23 28 31 31 27 26 26 24 25
5 5 6 3 2 3 4 6 6 4 3 3 2 3 6 11 11 6 2 2 2 3 5 3 2 5 4 2 0 1 2 2 2 1 3 5 5 4 5 5 3 10 12 8 8 4 4 4 5 10 13 13 13 16 17 18 18 18 19 19 19 20 21 21 21 21 20 21 21 20 22 23 17 12 11 11 15 17 19 24 25 25 27 28 28 26 26 28
5 4 4 5 4 6 8 8 6 3 3 4 4 4 4 7 7 3 1 2 2 2 1 2 4 3 2 2 2 2 3 3 3 1 2 4 5 2 1 3 5 8 9 6 3 4 5 3 5 8 9 9 11 13 15 16 17 19 19 19 19 19 21 22 20 19 20 22 23 23 24 19 9 9 10 14 22 23 23 23 23 24 27 26 25 26 27 28
9 7 6 5 4 4 4 4 4 3 3 4 4 4 4 4 3 3 2 3 4 1 3 5 3 1 1 1 1 3 4 4 3 4 4 3 5 5 3 4 6 8 9 5 3 3 4 4 6 8 8 8 9 10 13 14 15 17 18 19 21 20 18 17 17 18 19 20 22 21 15 8 7 10 9 12 17 17 15 16 18 22 25 24 24 25 26 28
10 9 7 4 4 4 3 2 2 3 4 2 1 2 3 1 6 7 4 2 3 7 8 8 4 3 3 4 3 0 1 1 5 10 12 13 15 16 16 16 15 9 6 5 4 4 4 5 5 6 8 9 11 13 13 12 12 13 12 14 20 20 19 19 18 16 12 9 9 8 3 2 6 9 11 13 14 13 13 13 14 20 23 23 24 24 25 28
Wind_Direction
321 325 327 330 335 337 339 342 345 348 353 355 358 2 360 360 1 0 1 1 1 0 358 357 357 354 352 349 346 344 338 332 325 315 309 312 309 287 266 252 252 257 256 253 245 235 206 195 208 208 213 224 235 234 215 211 191 172 112 139 236 204 201 196 191 205 185 257 292 314 277 216 260 265 255 268 256 251 254 248 245 243 244 248 251 252 252 257
310 313 314 319 320 322 324 324 327 330 334 337 342 344 344 347 345 347 350 351 355 354 352 349 348 348 344 343 342 339 336 333 324 313 310 340 355 337 290 255 248 247 247 244 243 239 223 219 220 208 211 217 230 225 207 208 192 180 131 160 232 204 212 209 201 217 215 263 289 297 286 238 249 268 267 261 253 249 251 251 245 247 250 251 253 252 251 251
301 303 306 308 309 311 310 309 312 310 313 316 318 321 324 324 324 328 329 331 337 337 337 336 336 337 334 334 334 333 335 331 323 318 340 6 348 344 328 273 247 241 240 242 241 233 231 234 231 213 213 219 222 216 202 197 199 203 172 214 246 216 235 251 244 248 255 272 288 290 283 247 258 267 253 245 262 258 240 247 241 244 258 262 258 255 253 251
294 296 298 300 301 301 300 301 301 300 302 303 305 307 307 309 310 310 312 315 318 320 323 324 325 327 326 326 328 329 334 330 321 48 4 334 333 335 332 302 256 242 236 238 238 229 231 232 233 219 212 222 218 214 214 203 199 191 175 208 238 194 227 258 256 262 272 278 271 274 288 277 278 268 247 248 278 268 239 250 252 252 269 276 267 260 256 253
290 292 293 294 295 294 294 295 294 295 296 296 299 300 301 302 301 303 305 306 307 310 313 314 317 318 318 319 321 323 337 343 168 15 337 327 334 337 339 324 279 253 237 231 234 231 229 229 229 214 211 228 195 190 229 211 195 180 211 229 236 199 219 264 267 273 278 280 269 272 286 285 286 267 249 239 242 260 258 265 270 268 276 282 275 267 258 253
292 293 293 293 293 292 291 289 290 290 290 292 293 294 296 296 297 299 299 302 303 305 307 308 310 311 312 313 313 315 325 307 281 314 321 320 329 334 343 333 311 274 247 233 234 233 230 228 224 209 207 234 192 193 235 212 196 219 245 237 246 238 238 267 272 274 276 276 272 273 278 282 285 274 262 240 242 264 272 275 277 278 279 278 273 265 257 253
292 293 295 295 295 293 291 290 289 287 288 288 288 289 291 291 292 293 295 298 299 301 304 305 307 307 308 308 306 306 289 272 292 303 305 306 310 317 323 318 311 286 258 244 240 233 231 225 220 216 203 259 225 215 239 222 200 224 264 245 255 251 248 265 271 272 274 273 274 277 281 277 267 272 277 257 262 272 277 278 277 278 278 272 264 259 258 257
288 288 290 292 293 293 293 293 292 291 290 289 288 288 287 288 289 289 291 292 294 298 299 300 303 304 305 305 304 298 278 283 296 296 294 297 297 306 310 306 299 287 274 259 250 239 235 227 224 222 208 240 232 215 227 239 213 216 246 251 256 258 261 271 274 272 272 271 275 278 274 268 264 269 276 270 275 280 280 281 281 279 275 266 260 258 257 257
286 286 287 288 289 290 290 291 292 292 292 291 291 290 289 289 288 288 288 288 291 292 293 296 296 299 301 299 300 293 283 291 296 290 296 297 295 298 299 298 291 283 279 267 253 240 235 232 231 228 236 250 239 231 208 220 236 213 234 255 264 268 276 281 277 272 270 269 270 268 269 272 274 279 274 271 278 286 286 284 284 279 271 264 260 258 257 257
287 286 286 286 286 287 287 287 288 288 289 289 289 289 289 289 288 288 288 288 288 288 289 290 290 293 293 291 290 278 283 292 293 294 297 293 293 293 292 293 285 277 273 266 253 243 238 239 243 237 247 260 247 241 206 199 239 244 258 273 275 279 287 285 278 276 272 270 260 234 259 273 275 282 269 274 279 286 288 287 286 278 271 268 263 261 258 258
284 285 286 285 285 285 285 286 285 285 285 285 285 285 285 285 285 285 285 286 285 286 284 284 286 284 283 284 268 258 282 290 291 293 292 291 290 288 288 285 278 271 263 262 257 255 249 243 247 240 243 255 251 249 229 229 251 285 304 298 286 295 299 286 277 277 267 270 259 225 246 274 274 207 251 272 279 277 281 284 282 275 273 273 268 266 262 260
280 282 284 285 286 286 287 287 287 287 286 286 285 284 284 283 282 282 282 283 282 283 280 279 278 275 277 273 262 266 283 286 286 288 286 287 286 284 285 280 274 267 257 258 256 258 254 244 239 236 240 246 279 296 250 254 284 301 321 317 296 323 310 285 277 272 242 251 259 204 240 279 260 235 252 269 277 274 275 279 280 277 275 274 270 267 265 266
282 283 286 287 289 289 289 289 288 288 287 287 286 285 285 283 282 281 280 280 280 279 278 276 273 271 266 264 269 277 283 281 280 281 281 282 281 280 279 275 270 260 254 254 253 253 250 247 239 238 248 248 260 276 274 306 326 302 319 360 301 336 309 283 295 271 220 229 229 159 230 267 252 259 263 272 277 273 270 273 279 280 279 278 274 269 268 272
285 287 289 290 292 293 293 293 292 291 290 290 289 287 285 283 282 281 280 279 277 275 275 273 270 265 252 261 275 280 278 279 278 277 278 277 277 276 273 271 266 257 253 251 251 252 247 249 242 239 247 245 253 271 294 329 334 298 308 323 305 314 282 293 21 83 245 251 192 166 250 254 257 271 270 275 276 274 269 270 277 280 281 281 277 274 272 273
288 291 293 295 297 297 297 298 297 296 296 295 294 292 288 286 284 281 280 278 274 271 270 269 266 256 247 264 275 277 276 275 276 278 277 273 270 270 269 267 262 255 250 246 245 248 245 238 227 227 241 248 255 272 322 341 343 1 283 284 298 221 269 303 310 230 231 256 172 165 252 256 257 268 273 278 275 269 265 267 274 278 281 281 278 276 273 272
295 300 302 305 306 306 308 307 306 304 304 304 302 300 296 292 289 286 284 279 274 269 264 264 260 246 239 270 272 272 271 270 275 278 271 267 264 262 263 261 255 248 241 240 241 243 237 217 212 220 233 249 239 168 39 349 317 343 213 249 259 245 270 311 301 249 221 229 176 194 236 258 257 262 273 281 279 271 262 266 273 275 278 278 276 273 270 272
313 317 318 323 320 321 322 318 317 314 313 314 310 307 304 301 296 291 286 280 272 261 256 255 250 240 240 261 268 269 271 273 275 272 265 263 261 258 255 248 242 237 232 232 233 225 207 191 192 220 236 241 138 108 56 296 272 288 217 230 245 247 251 279 296 284 222 186 207 229 236 249 255 264 276 279 282 282 266 264 270 272 274 274 274 271 269 271
325 329 334 338 333 334 334 330 328 325 324 326 323 319 315 312 306 297 287 277 264 246 244 229 201 225 250 247 259 270 274 276 270 264 260 254 250 250 244 238 235 224 212 209 208 190 182 181 170 170 281 245 149 125 181 231 234 238 227 234 250 239 242 247 264 280 268 217 214 230 249 252 260 271 277 275 276 279 272 267 267 269 270 271 272 270 269 270
324 329 337 342 341 340 340 338 337 335 332 330 330 328 324 323 319 305 289 265 233 212 235 204 186 201 253 244 258 268 270 268 260 253 249 246 245 240 229 227 219 195 174 164 193 183 169 143 118 139 239 234 209 170 200 225 227 230 227 232 249 249 246 241 248 253 267 275 255 246 259 258 263 266 271 275 274 271 271 271 267 267 269 270 270 269 269 269
323 327 332 340 342 341 342 342 341 341 338 333 335 337 339 343 334 312 295 266 246 248 258 234 219 235 252 258 266 267 266 263 259 253 249 251 247 229 211 198 181 176 171 159 187 187 170 168 170 186 219 227 210 191 210 227 234 240 231 240 246 254 262 252 259 261 223 276 261 242 263 266 263 262 261 272 275 268 268 272 269 266 266 267 268 269 268 268
322 322 326 334 337 336 337 340 341 343 344 342 344 350 1 3 342 305 307 291 277 269 264 259 248 248 255 259 260 262 264 264 260 254 251 248 234 212 195 177 156 177 192 152 139 161 173 193 207 209 222 226 209 203 218 233 247 250 236 255 256 245 261 259 264 272 209 213 259 241 266 270 262 262 258 266 273 266 260 265 269 268 266 265 267 268 269 270
314 313 317 323 326 329 327 335 340 341 346 346 349 357 359 348 329 308 309 292 286 283 272 267 258 252 256 258 256 255 256 262 259 249 242 229 212 201 184 171 174 184 152 131 115 161 203 219 222 221 228 236 226 201 199 221 231 237 239 262 265 246 270 270 257 272 265 190 270 264 266 268 261 257 253 253 257 259 259 257 264 269 268 265 265 266 268 271
301 304 310 311 317 323 321 331 338 339 345 347 349 355 351 342 331 317 310 277 283 287 276 267 259 253 255 256 254 249 244 247 250 246 239 219 198 197 188 165 174 161 138 179 194 201 214 230 230 230 231 228 248 207 156 215 229 217 224 244 261 251 263 264 252 292 314 215 270 286 275 272 259 249 244 244 246 254 261 259 261 266 265 263 264 264 265 268
296 301 305 309 314 319 320 327 334 338 340 345 348 348 347 341 334 325 312 274 275 283 273 265 256 252 252 252 251 243 236 237 241 244 237 216 191 187 196 168 143 157 188 204 211 220 233 242 231 224 209 204 236 232 187 237 249 219 213 220 248 248 243 249 276 340 325 273 287 303 291 283 232 226 237 241 245 251 258 260 261 262 262 262 263 264 265 265
294 298 301 306 308 312 317 321 327 334 334 339 342 340 345 341 335 333 324 294 278 277 272 261 248 249 249 247 244 238 234 236 239 241 235 218 201 185 181 175 169 204 212 211 222 239 249 252 218 181 200 207 218 233 208 215 248 246 215 214 236 247 252 260 288 344 343 301 313 356 305 295 196 195 229 241 241 246 250 253 253 257 261 261 260 264 266 267
289 292 295 298 302 307 311 312 316 326 331 333 332 335 341 341 341 340 337 335 287 265 248 231 227 241 240 238 230 209 216 255 245 236 230 224 215 204 176 172 191 223 204 196 229 249 249 239 197 174 200 200 200 242 220 199 238 266 226 212 231 246 257 259 267 306 274 254 293 64 273 286 278 198 218 231 233 244 246 246 248 251 257 260 260 264 269 272
282 284 287 289 293 297 299 300 305 318 327 321 320 329 335 341 352 349 350 343 287 225 155 190 187 182 232 225 186 161 179 276 247 216 210 210 209 206 207 190 197 227 168 142 266 242 205 207 196 190 192 172 185 240 224 186 212 266 236 195 208 223 236 237 226 220 234 270 302 111 138 273 285 248 199 212 216 239 252 250 251 250 253 260 262 266 272 277
274 278 281 280 279 280 282 286 295 309 312 308 313 318 328 339 346 2 25 300 286 125 120 199 178 199 285 187 177 171 321 321 69 192 196 198 199 198 225 219 187 205 161 154 238 238 166 191 204 185 170 178 204 229 197 158 196 257 211 158 179 197 209 182 175 199 244 346 287 216 138 236 277 271 137 198 212 232 249 244 247 250 253 261 265 267 274 282
271 274 278 279 274 270 272 278 288 297 290 295 304 306 321 331 340 27 92 256 301 76 106 203 178 266 27 151 191 224 340 15 36 163 166 190 197 186 260 240 192 224 223 200 232 255 189 199 193 164 163 210 216 225 160 159 202 229 101 86 74 74 72 103 145 151 90 307 247 194 164 213 276 279 85 81 206 225 241 243 250 260 258 259 263 268 275 284
270 271 275 276 271 269 273 278 285 288 281 284 291 301 319 323 352 32 229 245 329 340 177 163 219 320 70 112 238 273 302 348 33 128 122 149 195 203 345 314 187 213 265 266 252 258 252 134 141 172 194 199 164 110 163 171 184 132 100 54 31 28 29 56 55 88 79 279 235 183 181 189 271 287 129 164 227 227 239 253 269 278 264 256 260 272 280 286
269 270 269 269 270 271 275 277 281 282 277 279 288 305 330 356 75 202 238 267 3 291 53 92 295 48 81 104 292 303 257 298 23 143 156 103 167 212 28 308 342 63 321 293 275 277 255 198 189 200 190 147 105 93 40 101 120 117 100 72 25 329 3 27 351 53 172 266 231 183 182 183 232 263 198 246 269 249 236 242 251 264 262 258 267 282 288 291
271 270 268 268 268 268 269 271 276 275 270 278 286 289 97 57 241 217 250 3 348 263 72 237 276 82 87 82 243 246 161 267 231 158 173 145 159 188 192 204 180 2 299 256 274 309 261 222 208 167 176 166 143 121 358 6 99 123 111 126 157 304 337 339 309 98 214 256 247 183 173 200 242 253 256 266 271 248 227 224 232 244 259 265 277 286 290 293
274 270 268 265 263 263 263 266 270 266 264 272 259 136 104 209 243 202 198 304 249 246 80 139 3 90 124 93 258 241 152 231 210 168 165 124 166 244 250 222 168 203 262 224 317 318 286 268 168 126 233 195 169 169 220 252 176 166 156 157 174 208 240 256 261 260 255 264 280 177 173 246 279 268 226 235 247 245 230 233 242 249 261 270 279 285 288 291
272 270 268 261 258 258 257 258 260 258 260 246 175 117 116 231 244 117 162 223 248 328 32 104 60 38 138 215 246 208 203 251 176 146 185 114 145 267 259 235 190 176 238 224 304 237 257 284 198 164 220 184 180 203 203 161 160 191 168 146 181 191 192 209 221 247 259 272 306 218 187 215 260 271 229 229 258 277 250 243 248 253 262 277 287 290 294 299
269 269 266 263 259 255 254 253 248 248 245 209 155 160 225 236 253 240 206 230 283 311 313 359 101 37 282 248 254 219 214 253 101 113 189 173 189 220 207 214 197 171 158 216 257 169 224 270 237 187 140 158 183 224 185 117 130 225 129 112 229 206 173 218 245 237 238 286 287 225 227 225 229 270 264 254 277 282 265 260 264 276 290 303 302 302 312 321
266 265 264 263 259 254 255 249 239 239 226 188 153 223 228 234 226 189 205 214 208 209 331 314 217 223 268 251 285 284 191 211 199 126 215 205 220 222 209 219 197 183 180 195 227 202 234 271 260 106 49 141 180 299 139 144 213 215 121 186 239 164 149 229 271 298 85 263 250 220 253 277 294 284 275 271 272 266 278 296 297 303 321 324 316 320 329 330
266 265 265 262 258 253 250 240 230 232 214 181 193 232 222 230 205 197 213 155 160 120 80 293 248 208 251 250 270 279 148 221 209 168 216 229 242 208 201 247 205 190 206 214 231 249 254 284 287 134 238 309 352 337 339 63 129 130 171 227 259 53 126 183 262 327 264 252 247 240 261 273 282 277 313 10 331 286 288 312 310 299 302 314 321 326 327 327
269 270 270 266 263 255 245 233 221 219 204 178 232 234 216 220 204 199 205 193 217 131 168 242 243 207 222 237 246 212 192 237 162 157 224 231 236 180 164 244 206 195 221 223 236 322 304 294 299 132 197 301 360 9 318 353 125 145 194 238 106 188 248 163 190 234 241 249 248 242 259 263 234 245 285 313 284 276 278 277 292 286 283 309 317 317 322 329
271 275 276 272 265 250 237 226 211 206 195 181 235 231 215 221 216 208 210 212 223 221 227 238 238 246 234 231 247 227 212 223 180 183 223 219 241 189 141 239 222 215 227 193 186 284 350 269 273 220 142 342 10 91 216 253 222 130 340 328 114 175 201 186 194 200 233 252 256 240 247 257 241 225 227 240 241 247 253 243 256 265 271 291 300 308 322 331
261 262 271 258 232 232 219 208 201 197 194 225 230 230 233 230 232 223 219 220 215 212 236 235 221 240 249 243 249 243 232 226 203 209 222 225 253 249 217 218 190 213 194 151 200 285 26 269 263 273 308 318 293 207 193 210 216 180 221 240 230 206 198 241 233 186 224 253 261 251 244 250 261 238 210 234 236 209 203 224 253 265 277 292 303 314 322 324
217 232 270 226 212 213 191 187 195 196 207 234 231 242 248 245 254 235 224 225 227 231 231 213 209 228 246 256 249 221 219 235 215 211 218 228 241 250 239 207 192 190 67 64 269 203 159 231 242 253 266 261 250 218 184 194 194 181 206 226 233 230 246 274 255 218 219 248 250 255 256 245 254 265 247 231 216 198 200 219 249 276 294 304 310 314 314 311
190 226 263 195 212 204 178 177 203 208 214 229 234 246 247 245 249 238 223 218 221 237 242 231 228 231 243 255 251 223 209 228 217 213 229 231 220 220 233 213 199 204 183 180 225 191 152 138 202 230 237 245 255 245 192 193 206 214 211 218 243 234 214 241 249 239 235 245 243 252 259 236 212 255 265 247 202 212 236 252 269 288 295 300 302 299 299 299
208 236 228 170 209 203 183 183 227 207 220 250 246 250 249 249 249 237 224 212 207 221 235 236 237 238 239 240 246 239 230 227 216 223 244 246 226 226 234 230 213 196 224 255 252 189 121 96 228 243 251 257 268 272 250 207 205 248 238 214 225 232 228 235 245 256 255 249 251 258 258 231 177 243 268 274 265 258 259 260 264 280 287 287 288 292 295 295
247 258 244 219 212 205 193 193 222 213 234 249 247 248 245 244 244 244 236 198 190 201 226 231 228 234 234 229 236 230 225 229 226 231 238 241 241 232 234 239 235 211 199 212 213 186 186 190 215 245 265 262 267 275 271 231 187 228 239 227 228 232 238 249 259 274 265 247 246 259 260 247 219 241 260 273 277 277 274 268 252 249 272 281 284 289 290 289
292 274 256 240 225 225 233 237 228 226 232 237 245 248 248 248 243 245 246 226 208 206 228 246 243 252 244 250 262 243 229 236 245 262 254 251 279 264 306 309 288 243 244 277 334 44 227 229 198 233 254 250 257 260 254 251 208 213 233 230 232 229 231 244 255 252 255 244 238 251 262 260 249 246 256 266 274 279 285 288 277 252 253 270 275 277 281 288
308 276 278 262 232 234 250 254 251 248 221 236 243 236 240 250 253 246 243 237 228 224 237 255 258 271 251 244 266 260 251 245 244 266 273 277 303 356 356 348 341 337 325 326 346 33 208 268 235 242 252 252 265 268 263 273 265 251 253 236 233 234 230 236 246 246 257 260 250 251 265 270 261 251 259 265 273 282 288 293 291 282 274 276 281 288 304 327
309 259 242 291 250 234 245 257 263 260 244 258 257 246 244 248 259 250 226 226 226 221 234 251 244 250 241 229 244 255 264 255 245 254 265 289 323 320 337 346 358 13 11 358 360 28 184 267 250 249 256 253 261 270 270 275 269 261 266 260 253 254 242 239 246 249 256 265 262 258 264 270 265 255 258 262 270 278 280 280 285 290 296 307 333 6 26 28
219 268 236 242 292 246 234 263 292 311 323 313 285 299 277 261 267 259 228 248 240 202 216 245 245 46 53 212 228 257 305 283 264 283 341 15 354 324 335 340 354 16 23 8 356 11 204 264 260 256 265 261 263 271 271 272 272 266 265 264 260 258 253 249 250 251 250 255 262 264 262 264 266 260 257 261 268 272 279 290 298 307 321 350 22 33 29 22
235 270 276 285 295 282 288 312 332 332 306 295 270 261 264 262 263 255 241 312 308 220 225 225 90 73 66 41 84 236 323 300 265 345 48 15 348 332 333 311 310 15 19 356 339 328 231 273 280 269 279 277 271 274 272 271 272 269 265 261 257 256 256 256 257 257 255 255 259 263 261 260 267 280 288 313 330 332 335 341 349 359 9 21 26 22 18 14
251 261 299 320 303 287 293 295 303 313 281 265 252 240 243 251 257 269 305 237 239 277 273 139 96 89 136 106 101 216 265 260 230 237 39 11 354 360 351 312 306 338 344 332 319 288 264 298 322 305 294 283 276 274 269 267 267 269 271 268 264 262 259 260 263 263 262 260 259 259 259 261 292 338 346 4 8 8 8 9 15 18 16 18 18 14 11 7
251 260 292 314 295 276 282 281 280 284 269 244 231 251 262 249 273 330 315 247 233 205 84 91 78 34 155 167 244 221 210 180 184 244 265 263 269 266 257 268 288 312 317 297 261 285 286 294 312 308 288 279 284 277 274 278 276 272 273 269 264 262 259 258 258 255 258 264 265 266 268 278 343 350 350 7 12 12 7 4 8 10 10 13 14 10 5 1
250 260 266 261 262 263 263 312 316 262 252 252 235 287 288 4 26 9 306 268 115 115 82 51 29 357 345 315 317 83 153 289 284 279 275 261 253 252 247 247 249 252 271 282 267 251 258 275 289 290 286 287 288 283 286 295 285 272 266 261 258 258 260 261 261 261 270 286 281 276 287 326 330 347 358 0 4 1 347 347 3 6 6 8 6 3 1 359